Location: G�ppingen
(48.7089°N, 9.6563°E)
Time: 02:00:43
(UTC+01:00)

ISS - Pass Details

Date: 11 January 2018
Orbit: 401 x 406 km, 51.6° (Epoch: 17 January)

Event Time Altitude Azimuth Distance (km) Brightness Sun altitude
Exits shadow 07:15:07 12° 277° (W) 1,350 -1.8 -9.0°
Maximum altitude 07:17:46 32° 214° (SW) 722 -2.7 -8.6°
Drops below altitude 10° 07:20:44 10° 150° (SSE) 1,460 -0.1 -8.2°
Sets 07:22:56 0° 140° (SE) 2,318 1.4 -7.9°
